Regional Weather Roundup
Issued by NWS

Home | Current Version | Previous Version | Text Only | Print | Product List | Glossary On
Versions: 1 2 3 4 5 6 7 8 9 10 11 12 13 14 15 16 17 18 19 20 21 22 23 24 25 26 27 28 29 30 31 32 33 34 35 36 37 38 39 40 41 42 43 44 45 46 47 48 49 50
000
ASUS43 KLSX 162007
RWRMO

WEATHER SUMMARY FOR MISSOURI
NATIONAL WEATHER SERVICE SPRINGFIELD MO
300 PM CDT WED AUG 16 2017

NOTE: "FAIR" INDICATES FEW OR NO CLOUDS BELOW 12,000 FEET WITH NO
       SIGNIFICANT WEATHER AND/OR OBSTRUCTIONS TO VISIBILITY.
       CURRENT SKY AND/OR WEATHER CONDITIONS ARE NOT AVAILABLE FOR
       CHILLICOTHE AND FARMINGTON.

MOZ001>031-035>038-043-044-053-054-162100-
...NORTHERN AND WESTERN MISSOURI...

CITY           SKY/WX    TMP DP  RH WIND       PRES   REMARKS
KANSAS CTY INT PTSUNNY   85  72  65 SW13      29.81R HX  91
KANSAS C DTWN  SUNNY     88  73  61 W10       29.79R HX  95
LEE`S SUMMIT   CLOUDY    87  76  69 S10       29.82S HX  97
ST JOSEPH      MOSUNNY   85  71  63 W12       29.79R HX  90
CHILLICOTHE      N/A     86  76  71 S10       29.80R HX  96
KIRKSVILLE     CLOUDY    83  74  74 S21G26    29.81R

$$
MOZ066>068-077>081-088>096-101>105-162100-
...SOUTHWEST MISSOURI...

CITY           SKY/WX    TMP DP  RH WIND       PRES   REMARKS
SPRINGFIELD    LGT RAIN  75  72  90 NW9       29.94S
JOPLIN         CLOUDY    83  77  82 S6        29.89F HX  92
BRANSON        MOSUNNY   86  72  62 S6        29.94F HX  92

$$
MOZ032>034-039>042-045>050-055>058-069>072-162100-
...CENTRAL MISSOURI...

CITY           SKY/WX    TMP DP  RH WIND       PRES   REMARKS
COLUMBIA       TSTM      73  68  84 E13       29.86F
JEFFERSON CITY TSTM      70  70 100 VRB5      29.91R VSB 1/2
ROLLA          LGT RAIN  78  76  93 SW10      29.92F
SEDALIA        LGT RAIN  73  73 100 SE10      29.86R
WHITEMAN AFB   MOSUNNY   76  76 100 S14       29.83R
WARRENSBURG    PTSUNNY   81  72  74 SE12      29.83R
OSAGE BEACH    TSTM      71  69  93 W8        29.94R FOG

$$
MOZ051-052-059>065-162100-
...EAST CENTRAL MISSOURI...

CITY           SKY/WX    TMP DP  RH WIND       PRES   REMARKS
ST LOUIS INTL  CLOUDY    90  74  59 SE13      29.88F HX  99
SPIRIT OF STL  CLOUDY    86  76  71 SE3       29.85F HX  96
ST CHARLES     CLOUDY    88  74  63 SE7       29.87F HX  96

$$
MOZ072>076-082>087-097>100-106>115-162100-
...SOUTH CENTRAL AND SOUTHEAST MISSOURI...

CITY           SKY/WX    TMP DP  RH WIND       PRES   REMARKS
CAPE GIRARDEAU MOSUNNY   89  75  63 S13G21    29.91F HX  99
FARMINGTON     CLOUDY    84  72  67 S15G25    29.92F
POPLAR BLUFF   PTSUNNY   87  78  74 SW12      29.92S HX 100
WEST PLAINS    LGT RAIN  76  74  93 N3        29.96F

$$



USA.gov is the U.S. government's official web portal to all federal, state and local government web resources and services.